GEFSMW_500_meanwind_036.txt.gz
Wind_Speed
27 29 32 34 35 37 38 38 39 39 38 38 38 38 37 37 36 36 35 33 29 28 30 34 38 40 40 39 39 37 36 36 35 34 32 31 30 28 27 26 25 24 22
28 30 31 32 33 35 35 36 36 37 38 38 39 39 39 39 38 38 36 33 30 28 29 31 33 36 40 40 38 36 36 35 34 34 33 32 30 29 28 27 26 25 23
26 28 30 32 33 35 35 36 37 38 39 40 40 41 41 41 40 39 37 35 34 31 30 30 32 34 35 36 36 37 36 35 34 33 32 32 31 29 28 28 27 26 24
27 29 31 33 35 36 37 38 39 40 42 42 43 43 43 43 42 41 40 39 37 35 33 32 32 34 34 34 36 36 36 34 33 33 32 32 31 30 29 29 29 28 26
29 31 33 35 36 37 39 40 41 43 44 45 45 45 45 45 44 44 43 42 41 40 38 36 35 35 36 36 37 37 37 36 35 35 34 33 32 32 31 31 30 30 28
30 32 34 35 36 38 40 41 42 43 44 45 45 46 46 46 45 45 44 44 44 43 43 42 41 40 40 39 39 39 39 38 37 37 36 35 35 34 34 34 33 32 30
31 33 34 35 36 38 39 41 41 42 43 43 43 43 43 42 42 42 42 43 43 44 45 46 46 46 45 44 44 43 43 41 40 39 39 38 38 38 37 36 36 34 32
32 33 35 36 37 38 39 40 40 40 40 40 39 39 39 39 39 40 40 41 42 44 45 46 48 50 51 51 50 49 48 47 45 43 43 42 41 41 40 39 38 37 35
33 35 36 38 38 39 39 39 38 37 36 35 35 35 36 37 38 39 40 41 43 44 46 47 49 51 53 55 56 56 55 53 50 48 47 46 45 45 44 43 42 40 39
35 37 38 39 39 39 39 39 37 35 34 34 34 35 37 38 40 42 44 45 47 48 49 50 51 52 54 56 59 60 61 60 57 55 52 50 50 48 47 47 45 44 42
37 39 39 40 40 40 40 39 37 35 35 35 36 38 40 42 44 46 48 49 50 52 53 54 54 55 56 57 59 62 64 65 64 61 59 55 53 52 51 50 49 47 46
39 40 40 41 41 41 40 39 38 37 36 37 38 41 44 46 48 50 52 53 54 55 56 57 58 58 59 60 61 63 65 67 69 68 66 63 59 56 54 54 52 50 49
40 41 41 41 41 41 41 39 38 38 38 40 42 45 48 50 52 54 56 56 56 56 57 58 59 60 61 62 63 64 66 69 70 72 72 69 66 62 58 56 55 53 51
41 41 41 42 42 42 41 40 39 39 40 42 45 47 50 52 54 56 56 56 55 55 56 57 58 60 62 63 64 65 67 69 71 73 74 75 71 67 64 59 57 56 54
42 43 43 43 42 42 41 40 39 40 41 44 47 49 51 54 55 56 56 55 55 54 54 55 56 57 59 61 62 63 65 67 70 73 75 77 77 73 68 65 61 59 57
43 43 44 43 43 43 42 40 39 40 42 45 48 50 52 54 55 55 55 54 53 52 51 50 51 53 54 56 57 58 61 62 64 69 73 77 78 78 73 69 66 62 59
44 44 44 44 44 43 42 40 40 41 43 47 49 52 53 54 54 54 53 51 49 48 46 45 46 47 49 52 53 54 55 56 57 60 65 72 76 79 78 74 69 67 62
45 46 46 45 45 44 43 41 41 42 45 48 50 52 53 53 53 52 50 48 46 43 40 38 39 41 43 45 48 49 49 49 49 51 55 61 69 74 77 76 73 69 64
47 48 48 47 47 45 43 42 42 43 46 49 51 52 53 52 52 50 47 44 40 36 34 33 33 34 37 40 43 44 44 44 44 44 46 50 56 65 71 73 73 72 68
48 49 49 48 48 46 44 43 43 44 47 49 51 52 52 52 50 47 44 40 35 31 27 26 26 28 31 34 37 39 39 40 40 40 40 42 47 54 62 68 71 72 69
49 49 49 49 48 47 45 44 43 45 47 49 50 51 51 51 48 45 41 36 32 27 23 20 19 22 25 28 31 34 36 37 36 36 36 36 40 46 52 59 64 67 68
49 49 48 48 48 47 45 44 43 44 46 48 49 49 49 49 46 43 39 34 30 24 19 15 14 17 21 24 27 29 33 35 34 33 34 34 35 38 44 50 56 63 65
49 48 48 47 47 47 46 44 43 44 46 47 48 48 47 47 44 42 37 32 28 22 16 12 11 12 16 20 23 26 30 32 32 31 32 32 32 33 37 43 49 54 60
49 48 47 47 46 46 45 44 43 43 45 46 46 46 45 44 43 40 36 31 26 21 15 9 7 10 14 18 20 23 27 29 29 29 29 29 29 30 31 36 42 47 52
49 48 47 46 46 45 44 43 42 42 43 44 45 44 44 43 41 38 34 31 26 21 14 8 3 8 13 18 20 22 25 27 28 27 27 27 27 28 29 31 36 42 47
48 47 46 46 45 44 43 42 41 41 42 42 43 43 42 41 39 36 33 29 26 21 16 9 1 5 12 16 19 21 23 25 26 26 25 25 25 26 28 29 32 37 42

GEFSMW_500_meanwind_042.txt.gz
Wind_Speed
19 21 23 25 27 30 32 34 35 37 38 39 40 40 40 40 41 41 40 39 40 40 40 40 39 38 37 36 33 31 31 33 34 34 35 35 35 34 33 31 30 29 28
18 21 23 25 27 29 31 32 34 36 38 39 40 40 41 41 42 42 41 41 41 42 42 41 40 39 38 37 34 33 31 32 34 34 34 34 34 33 32 31 30 29 28
20 23 25 26 28 30 32 34 35 36 38 40 41 41 41 41 42 42 42 41 41 42 43 42 41 40 39 37 36 35 33 32 32 32 33 34 33 33 32 32 31 30 30
22 24 26 28 30 32 34 35 35 36 38 39 40 40 40 41 41 42 42 42 42 42 41 41 40 40 39 38 37 36 35 34 32 32 34 35 34 33 32 32 32 32 31
24 26 27 29 31 33 34 36 36 37 38 39 40 41 41 41 42 42 42 41 40 40 39 39 38 38 37 37 38 38 37 36 35 34 33 34 35 36 34 32 31 32 32
26 27 28 29 31 33 34 36 37 38 39 39 40 41 41 41 41 41 40 39 38 38 38 37 36 36 36 36 36 37 38 38 39 38 35 35 35 36 36 35 33 33 33
28 29 30 31 32 34 35 36 37 38 39 40 40 41 41 41 41 40 39 39 38 38 38 37 35 35 35 36 35 36 37 38 39 41 39 38 37 36 36 35 35 35 34
29 30 31 32 34 35 36 37 37 38 39 40 41 41 41 41 40 40 39 39 39 39 40 41 40 38 38 38 38 37 37 38 39 41 42 41 40 38 37 36 36 36 36
29 31 32 34 35 37 37 38 38 39 39 40 40 41 41 41 40 40 40 40 40 41 42 43 44 44 43 43 42 42 41 41 40 41 43 44 44 41 39 38 38 37 37
30 31 33 35 36 38 39 39 40 39 39 40 40 41 41 40 40 40 41 41 42 42 43 45 46 47 48 48 47 47 46 45 45 45 44 45 46 46 44 41 39 40 40
31 32 34 35 37 39 40 41 41 41 40 41 41 41 41 40 40 40 40 41 42 44 45 47 48 50 51 52 52 52 51 50 49 49 49 49 49 50 48 45 43 42 42
31 33 35 37 39 40 41 42 42 42 42 42 42 42 41 40 40 41 41 42 43 45 48 50 51 53 54 55 56 56 55 54 54 53 53 52 52 52 52 51 48 45 44
33 35 37 39 40 42 42 43 43 43 43 44 43 42 42 41 41 41 42 44 46 48 50 52 53 55 56 58 60 61 60 59 58 57 56 56 55 55 55 54 53 51 48
35 38 40 41 42 43 43 44 44 44 44 44 44 43 42 42 42 42 44 46 48 50 51 52 53 55 57 58 60 61 61 61 60 60 59 59 58 58 57 57 56 55 53
38 40 42 43 43 44 44 45 45 45 45 45 44 43 43 42 42 43 44 47 49 50 51 52 53 54 54 55 56 57 59 59 59 59 59 59 60 61 60 59 59 58 56
39 41 43 44 44 45 45 45 46 46 46 45 44 44 43 42 42 44 45 47 49 49 50 51 51 50 50 51 52 52 53 54 55 55 57 58 60 62 62 61 61 60 59
40 42 44 45 45 46 46 46 46 46 46 45 45 44 43 42 43 44 46 47 48 49 49 48 47 46 45 45 45 46 46 47 49 50 52 55 57 60 62 63 62 61 60
42 44 45 45 46 46 46 47 47 47 46 46 45 44 43 43 43 45 46 47 47 47 46 44 42 41 39 39 38 39 40 41 43 46 48 50 53 56 59 61 62 62 61
43 44 45 46 46 46 47 47 47 47 47 46 44 44 43 43 44 45 46 46 46 44 42 40 39 37 35 33 32 32 33 34 37 41 44 45 47 50 53 57 60 61 62
43 44 44 46 46 47 47 47 48 47 46 45 44 43 43 44 44 45 45 44 43 41 39 38 36 33 30 27 26 26 26 28 31 35 39 40 42 45 48 51 55 58 60
43 43 45 46 47 48 48 48 48 47 46 45 44 43 43 44 44 44 43 43 41 39 38 36 33 29 26 23 21 20 21 23 26 30 33 37 40 42 43 46 49 52 56
42 43 44 46 48 49 48 48 48 47 46 45 43 42 43 43 43 42 41 40 38 37 36 34 30 26 23 20 16 14 15 19 23 26 29 33 36 39 40 42 44 47 50
42 43 44 46 47 49 49 49 48 47 45 44 42 42 42 42 41 40 39 38 37 36 35 32 28 23 19 15 12 10 11 14 19 24 26 29 32 34 36 38 41 43 45
42 43 43 45 47 48 49 49 48 46 45 44 42 41 41 41 39 39 39 37 35 35 33 30 25 21 17 12 9 6 9 13 18 21 23 25 27 28 30 34 36 38 40
41 42 43 45 47 48 49 49 48 46 44 43 42 40 40 40 38 37 37 36 34 33 31 28 24 19 14 10 6 5 8 12 16 19 20 22 23 24 25 27 30 33 36
41 42 43 45 47 49 49 49 48 46 44 43 41 40 39 38 37 36 36 35 33 30 28 25 22 17 12 7 2 4 8 11 14 18 19 20 21 22 23 24 26 29 32

GEFSMW_500_meanwind_048.txt.gz
Wind_Speed
16 17 19 21 23 25 27 29 31 32 34 35 36 37 38 38 39 39 38 38 37 38 38 39 39 38 38 38 37 37 36 36 34 32 31 31 31 30 32 34 33 34 35
14 16 18 21 22 24 25 27 29 31 32 34 35 36 36 36 37 37 37 36 36 36 36 37 37 37 37 37 37 37 36 35 35 33 30 30 30 31 32 33 35 35 35
13 15 17 18 20 21 23 24 26 28 30 32 33 34 35 35 36 36 36 35 34 33 33 34 35 35 35 35 35 35 35 34 34 33 30 29 29 28 31 33 34 34 35
11 13 15 17 19 20 22 23 24 26 28 29 31 32 32 33 33 33 34 34 34 33 33 32 32 32 32 33 33 33 33 33 32 32 31 30 29 28 28 30 32 33 33
12 14 16 18 20 21 22 24 25 26 28 29 30 31 32 32 33 33 34 34 34 34 33 32 30 30 30 30 30 30 30 31 31 31 30 30 29 29 29 30 31 32 32
14 16 19 21 22 24 26 27 28 30 31 32 33 33 34 34 34 35 35 35 36 36 35 34 33 31 30 30 30 30 29 29 29 30 30 30 31 30 30 30 32 32 32
18 20 22 24 26 28 30 31 32 33 34 35 35 36 36 36 36 37 37 37 38 38 38 38 37 35 33 32 31 31 31 30 29 30 30 30 31 32 33 32 32 32 33
21 23 25 28 30 31 33 34 35 36 36 37 37 37 37 37 38 38 39 39 39 40 40 40 39 38 36 34 33 33 32 32 32 31 31 31 31 33 34 34 33 33 34
24 26 28 31 33 35 36 37 38 38 38 38 37 37 38 38 39 39 40 40 40 40 41 40 40 39 38 37 36 35 34 34 34 34 34 34 33 33 33 35 35 35 36
26 28 30 33 35 36 38 39 39 39 38 38 38 38 39 39 39 39 40 40 40 40 40 40 40 40 39 39 38 38 38 37 37 37 37 37 37 36 36 35 36 37 37
28 30 32 34 36 37 39 39 39 39 38 38 39 39 40 40 40 40 40 41 40 40 40 40 40 40 40 40 40 40 40 40 40 40 40 40 41 40 40 39 38 38 39
28 31 33 36 37 38 39 39 38 38 38 39 39 40 41 41 41 41 41 41 40 40 40 40 40 40 40 41 42 42 43 43 43 44 44 44 44 44 44 44 42 41 41
30 32 35 37 38 38 38 38 38 39 39 40 41 41 42 42 42 42 42 40 40 40 40 39 39 40 41 42 43 44 45 46 46 46 47 47 48 48 47 47 47 45 44
31 34 36 37 37 37 37 38 39 40 41 42 42 43 43 43 43 42 41 40 40 40 39 39 40 41 42 43 44 46 47 47 48 48 48 49 50 51 51 50 50 50 48
33 35 37 37 38 38 39 39 40 42 43 44 44 45 44 44 43 42 41 41 40 40 39 39 40 41 42 44 45 46 48 49 50 51 51 51 52 53 55 55 54 53 52
33 36 37 38 38 39 40 41 42 43 44 46 46 46 46 44 43 42 41 40 40 39 39 40 40 41 41 43 44 45 46 47 48 50 52 53 53 54 56 58 58 57 56
34 36 37 38 39 40 41 42 43 45 46 47 47 47 46 45 44 42 41 41 40 39 39 39 39 40 41 42 43 43 43 44 45 46 48 49 51 52 56 59 61 61 60
35 37 38 39 40 41 42 43 44 46 47 48 48 48 47 45 44 43 42 41 40 39 39 38 39 39 40 40 40 40 40 41 41 42 44 45 47 49 52 57 61 63 63
36 37 39 40 41 42 42 43 45 46 48 49 49 48 47 46 45 43 42 41 40 39 38 38 39 39 38 38 38 38 38 38 38 38 40 42 44 46 50 54 58 62 64
36 38 39 40 41 42 43 44 45 47 48 49 49 48 48 46 45 43 42 40 39 38 38 38 38 37 37 36 36 35 34 34 33 33 35 37 40 43 47 51 55 59 63
37 38 40 41 42 43 44 45 46 47 48 49 49 49 48 46 45 43 42 40 39 38 38 38 36 36 35 34 32 31 29 28 27 28 29 32 35 39 44 48 52 56 61
37 39 41 42 42 43 44 45 46 47 48 48 49 49 48 46 44 43 41 40 39 38 37 36 35 34 32 30 28 26 24 22 21 21 22 25 29 34 39 44 48 51 56
38 39 41 42 43 43 44 45 46 47 48 48 48 48 48 46 44 42 40 39 38 37 36 34 32 31 29 28 24 22 19 16 14 14 16 20 25 30 34 40 44 47 51
39 40 42 42 43 43 44 45 46 47 48 48 48 48 47 45 43 42 40 38 38 36 34 32 31 29 28 26 22 18 15 11 8 7 10 14 19 25 30 36 39 41 46
41 42 42 42 42 43 44 45 45 46 47 47 47 47 46 44 42 40 39 38 37 35 32 31 29 28 26 23 19 15 11 7 4 3 6 10 16 22 27 31 35 38 41
42 43 43 43 43 44 44 45 45 46 47 47 46 46 45 43 41 39 38 38 36 34 31 30 28 26 23 21 17 13 9 4 1 3 5 8 13 19 23 27 31 35 38

GEFSMW_500_meanwind_054.txt.gz
Wind_Speed
17 17 17 18 18 19 20 21 22 24 25 26 27 28 29 30 31 31 31 31 31 31 32 32 33 33 34 34 34 34 33 33 33 33 33 32 32 33 32 32 32 32 32
15 16 17 17 18 19 20 22 23 24 26 27 28 30 30 31 32 33 33 32 32 31 31 32 32 32 33 33 33 32 33 33 33 33 33 33 33 33 33 32 32 32 32
13 14 15 16 18 19 20 22 23 25 26 27 28 29 30 31 32 32 33 32 31 30 30 30 31 31 31 32 32 32 32 32 33 33 33 33 33 33 33 32 32 32 32
11 13 15 17 18 19 20 22 23 24 25 26 28 29 29 30 30 31 31 30 30 29 29 29 30 31 32 32 32 32 32 32 33 33 33 33 32 33 33 33 33 33 33
10 12 14 16 17 18 19 21 22 24 25 26 27 28 28 29 29 29 29 30 30 30 30 30 31 31 32 33 33 34 33 33 33 33 33 33 33 33 33 33 34 33 33
10 12 14 15 16 18 19 21 22 24 25 26 26 27 27 27 28 29 29 30 30 31 31 31 32 32 33 34 35 35 35 35 34 34 34 34 34 33 33 33 33 33 34
10 12 14 15 17 19 21 22 24 25 26 26 27 27 27 28 28 29 30 30 31 32 32 33 34 34 35 36 36 36 37 37 37 36 36 36 35 35 34 33 33 33 34
11 13 14 16 18 20 22 23 25 26 26 27 28 28 28 29 30 30 31 32 32 33 34 35 36 36 37 37 37 37 38 38 39 39 38 37 37 36 36 35 34 34 35
12 14 15 17 19 21 23 25 26 27 28 29 29 29 30 31 31 32 33 34 35 36 36 37 38 38 38 38 37 37 37 38 39 40 40 39 39 38 37 37 36 35 35
14 15 16 18 21 23 25 27 28 29 30 30 30 31 32 33 34 35 36 37 37 38 38 38 38 38 38 38 37 37 37 38 38 39 40 41 41 40 39 39 38 37 37
16 17 19 21 23 25 27 29 30 31 32 32 33 33 34 36 37 37 38 39 40 40 40 40 39 38 38 38 37 37 37 37 37 38 39 41 42 42 41 41 40 39 38
18 19 21 23 25 27 28 30 31 33 34 34 35 35 37 38 39 40 41 41 41 42 41 41 40 39 38 38 37 37 36 36 36 37 38 40 42 43 44 43 43 42 41
20 21 22 24 26 28 30 31 33 34 35 36 37 38 39 40 41 42 43 43 43 43 43 42 41 40 39 38 37 36 35 35 35 36 37 38 41 42 44 45 46 46 45
21 22 23 25 27 29 31 33 35 36 37 38 39 40 41 42 43 44 45 45 45 44 44 43 42 40 38 37 36 35 35 35 36 36 37 39 40 42 44 46 47 48 48
22 23 24 26 28 30 33 35 37 38 39 39 40 41 43 44 45 46 46 46 45 45 45 43 42 40 38 36 36 35 35 35 36 37 38 40 41 43 45 46 48 49 50
23 24 25 28 30 32 34 37 39 39 40 40 41 42 44 45 46 46 47 46 46 46 45 43 41 39 38 37 36 35 35 36 36 38 39 40 41 43 46 47 49 51 52
24 25 27 29 32 34 36 39 40 41 41 41 42 43 45 46 47 47 47 47 46 45 44 42 40 39 38 38 37 37 36 36 36 37 39 40 41 43 45 47 50 52 53
25 26 29 31 33 35 37 39 41 41 42 42 43 44 46 47 48 48 47 47 46 45 43 42 40 39 39 39 38 37 36 35 36 36 37 39 40 42 44 46 49 51 54
26 28 30 32 34 36 38 40 41 41 42 43 44 45 47 48 48 48 47 46 46 44 43 42 41 39 39 38 36 36 35 35 35 36 37 38 39 41 44 45 47 50 53
28 30 32 34 35 37 39 40 41 42 43 44 45 46 48 48 48 47 46 46 45 44 43 42 40 39 38 37 35 34 33 32 33 34 35 36 37 39 42 44 47 49 52
30 31 33 35 37 38 40 41 42 43 44 45 46 48 49 48 48 47 47 46 45 43 42 41 39 38 37 35 33 32 32 31 31 31 32 33 34 36 39 41 44 47 52
31 33 35 37 38 40 41 42 43 44 45 46 48 49 49 49 48 47 47 45 44 43 41 40 38 37 35 34 32 31 30 30 30 29 28 28 28 30 32 35 40 45 49
33 35 37 39 40 41 42 43 44 46 47 48 49 50 49 49 48 47 45 44 43 41 39 38 37 35 34 33 31 30 29 28 27 25 23 22 23 24 25 28 33 40 45
36 37 39 40 42 43 43 44 46 48 50 51 51 50 49 49 48 47 45 43 42 40 38 37 35 33 32 31 30 28 27 26 24 21 19 18 18 19 20 22 27 33 39
38 39 40 42 43 44 45 46 49 51 52 52 52 51 50 48 47 46 44 42 41 38 36 35 34 32 31 30 30 27 25 24 21 18 16 15 14 14 14 16 20 26 32
40 41 42 43 44 45 47 49 51 53 54 54 53 51 49 47 45 44 42 41 39 37 35 34 33 32 31 30 29 27 24 22 19 16 14 13 12 11 10 12 16 20 26

GEFSMW_500_meanwind_060.txt.gz
Wind_Speed
13 11 9 8 8 9 10 10 12 13 15 16 18 19 21 22 22 22 22 23 23 23 23 24 23 24 25 25 26 26 27 27 27 28 29 30 31 31 32 32 33 33 33
10 8 6 7 8 9 10 11 13 15 17 18 20 22 23 24 24 24 23 23 23 23 23 23 23 23 24 24 25 25 26 27 27 27 28 29 30 30 32 33 34 34 34
3 3 4 6 8 9 11 13 15 17 18 20 21 22 23 23 23 23 22 22 22 22 22 22 23 23 23 24 24 24 25 26 26 27 28 29 30 30 31 33 34 35 35
2 3 5 7 9 11 13 15 17 18 20 21 21 22 22 21 21 21 21 21 21 21 21 22 22 23 23 24 25 25 26 27 27 28 29 29 30 31 32 33 34 35 36
4 4 6 8 10 12 14 16 18 19 19 19 20 20 21 21 21 21 21 20 20 20 20 21 22 23 24 25 26 26 27 28 29 30 30 31 32 33 34 35 35 36 37
5 6 8 9 11 13 15 17 17 18 18 19 20 20 20 21 21 21 21 21 21 21 21 22 23 24 25 26 27 28 29 30 31 32 33 34 35 36 36 37 38 39 39
7 8 10 11 13 14 16 17 17 18 19 20 20 20 21 21 21 21 22 22 22 23 23 24 25 25 26 27 28 29 30 31 33 34 35 36 38 38 39 39 39 40 41
9 11 12 13 14 15 16 17 18 19 20 20 20 21 21 21 22 22 23 23 24 25 26 27 27 28 28 29 30 31 32 33 34 35 36 38 39 40 41 41 42 42 43
11 12 14 15 16 16 17 18 18 19 19 20 21 22 22 23 23 24 25 25 26 27 28 29 30 31 31 32 32 33 33 34 35 36 37 38 39 41 42 43 43 44 44
13 14 15 16 16 17 17 18 19 19 20 21 22 23 24 25 25 26 27 28 28 30 31 32 33 34 34 34 34 35 35 35 36 37 37 38 40 41 41 43 44 44 45
15 15 16 17 17 17 18 19 19 20 22 23 24 25 26 27 27 28 29 30 31 32 34 35 36 36 36 36 36 36 36 36 36 37 37 38 40 41 42 42 44 45 45
16 16 16 17 17 17 18 19 20 22 23 25 26 27 28 29 30 30 31 33 34 35 36 37 38 38 38 37 37 37 36 36 36 37 37 37 38 39 41 42 43 44 45
16 16 16 17 17 18 19 20 22 23 25 27 28 29 30 31 32 33 34 35 37 38 39 40 40 39 39 39 39 38 37 36 36 36 36 36 37 38 39 40 41 43 44
16 16 16 17 18 19 20 22 23 25 27 28 30 31 32 33 34 35 37 38 40 41 42 42 41 40 40 40 39 37 36 35 35 35 34 35 36 37 38 39 40 42 43
16 16 17 18 19 21 22 23 25 26 28 30 31 33 34 35 36 37 40 42 43 43 44 43 42 41 40 39 38 37 36 35 35 34 34 34 35 36 37 39 40 41 42
17 17 18 19 21 22 23 24 26 28 30 31 32 34 35 36 37 40 42 44 44 45 45 43 42 41 40 39 38 37 35 34 34 34 35 35 35 35 37 38 40 42 42
18 18 19 21 22 23 25 26 28 29 31 32 33 35 36 38 40 42 44 45 46 46 45 43 42 41 40 38 36 35 34 34 34 34 34 34 34 35 36 38 39 41 43
19 20 21 22 24 25 26 28 29 30 32 33 34 36 38 40 42 44 46 47 47 46 45 43 42 40 39 37 35 35 34 33 33 33 33 33 34 34 35 37 39 41 43
20 21 22 24 25 27 28 29 30 31 32 33 35 36 39 41 44 46 48 48 47 46 45 43 41 39 37 36 34 33 32 32 31 31 31 31 32 34 35 36 38 39 42
22 23 24 26 27 28 29 31 32 32 33 35 36 39 41 43 46 48 49 49 48 46 44 41 39 37 35 34 33 32 31 30 30 30 30 30 31 32 33 35 36 38 40
25 26 27 28 29 30 31 32 33 34 35 37 39 41 44 46 47 49 50 50 48 45 43 40 38 36 34 33 32 31 30 29 29 29 29 29 30 30 31 33 35 37 39
27 28 29 30 31 32 33 34 34 35 36 39 41 44 47 48 50 51 51 50 47 44 41 38 37 35 33 32 31 31 30 29 29 29 29 28 28 28 29 30 32 34 37
30 31 32 33 33 34 36 36 36 37 39 41 44 47 49 50 51 52 51 49 46 43 39 37 36 34 33 31 31 30 29 29 28 28 28 27 27 28 27 27 28 30 33
33 34 35 35 36 37 37 39 40 41 42 44 46 48 50 51 52 52 50 48 45 42 38 36 35 33 32 31 31 30 29 29 28 28 27 26 25 25 25 25 25 27 28
35 36 37 38 39 40 40 41 43 44 44 46 49 50 51 52 53 51 49 46 44 41 38 36 34 32 32 31 31 30 29 29 28 27 25 24 23 22 21 21 22 23 25
37 38 40 42 43 43 44 44 45 46 47 49 51 51 52 53 52 50 47 44 42 40 37 34 33 32 31 31 30 29 28 29 28 26 23 22 20 20 20 19 19 20 21

GEFSMW_500_meanwind_066.txt.gz
Wind_Speed
15 16 15 13 11 10 10 10 10 11 11 12 13 14 15 15 16 16 16 17 18 18 18 18 18 18 18 17 18 18 20 20 21 22 23 24 25 26 26 27 27 28 29
11 11 11 10 9 8 9 9 9 9 10 11 12 13 14 15 15 16 17 17 18 18 18 18 18 18 18 18 18 18 18 19 20 21 21 23 24 24 25 27 28 28 29
5 7 7 6 6 6 6 7 8 9 10 11 12 13 15 16 17 17 18 18 18 19 19 19 19 19 19 19 19 19 20 20 20 21 22 23 24 24 25 26 27 28 29
3 4 4 4 4 4 5 6 8 9 11 12 14 15 16 17 18 19 19 19 19 19 20 20 20 20 20 21 21 21 21 21 21 22 22 24 25 26 27 27 28 29 29
2 3 3 2 2 3 5 7 9 10 12 14 16 17 18 19 19 20 20 20 20 20 21 21 21 22 22 22 22 23 23 23 23 24 24 25 26 27 28 29 29 30 31
1 1 2 3 4 6 7 9 10 12 13 15 17 18 19 20 21 21 22 22 22 21 21 22 22 23 24 24 24 25 26 26 26 27 27 27 28 29 30 31 32 32 33
4 4 5 5 7 8 9 10 11 13 14 16 17 19 20 21 21 22 23 23 23 23 23 23 24 24 25 26 27 27 28 29 29 30 30 30 31 31 32 32 33 34 35
6 7 8 8 9 10 11 12 13 14 15 17 18 19 21 21 22 22 23 23 24 25 25 25 26 26 27 28 29 30 30 31 32 33 33 34 34 34 35 35 36 36 37
9 10 11 11 11 12 12 13 14 15 16 18 19 20 22 23 23 24 24 25 25 26 26 27 28 29 30 31 32 33 33 34 35 35 36 36 37 37 37 38 38 39 39
13 13 13 13 13 13 14 14 15 16 17 18 20 20 21 23 23 24 25 26 26 27 28 29 31 32 33 34 35 36 37 37 38 38 38 38 39 39 39 40 40 41 41
16 15 15 15 14 14 14 15 16 17 18 19 21 22 22 23 24 24 25 26 27 29 30 32 33 35 36 37 38 38 39 39 39 39 39 39 39 40 40 40 41 41 42
18 18 16 16 16 15 15 15 16 18 19 20 21 22 23 24 24 25 26 27 29 30 32 34 36 37 38 39 39 40 40 40 39 39 38 39 39 39 39 40 40 40 41
19 19 18 17 16 16 16 17 17 18 19 21 22 23 24 25 25 26 27 29 31 32 34 36 38 39 40 40 40 40 40 39 38 38 37 37 37 37 38 38 38 38 39
18 19 18 17 17 17 18 18 19 20 21 22 23 24 25 26 26 27 29 31 33 34 36 38 40 41 41 41 41 40 39 38 37 37 36 36 35 35 36 37 37 38 38
19 19 18 18 18 19 19 19 20 21 23 24 25 26 26 27 28 30 32 34 35 36 38 40 41 42 42 41 41 39 37 36 35 34 34 34 33 33 34 35 36 36 37
20 19 18 19 19 20 20 21 22 23 24 26 26 27 28 30 31 32 34 36 37 38 40 42 43 43 43 42 40 39 36 35 34 33 33 33 33 33 33 33 34 35 35
20 19 20 20 20 21 22 22 23 25 26 27 28 29 30 31 33 35 36 37 39 41 42 44 44 44 44 43 40 38 36 35 34 33 32 32 32 32 31 31 32 33 34
21 21 22 22 22 22 23 24 25 26 28 28 29 31 32 33 35 36 38 39 41 43 44 45 45 45 45 43 39 37 35 35 34 33 32 31 31 31 30 30 30 31 32
22 23 24 24 24 24 25 26 27 28 29 30 31 33 34 36 37 39 40 41 43 45 46 46 46 46 45 43 39 37 35 34 33 32 31 31 31 30 30 30 30 31 32
25 25 25 26 26 26 26 27 28 30 31 32 33 35 36 38 39 41 43 44 45 46 47 47 47 46 45 42 40 38 36 34 33 32 31 31 31 31 30 30 31 31 32
27 27 27 28 28 28 29 30 31 32 34 35 36 38 40 40 40 42 45 46 46 47 48 48 47 46 44 41 38 37 35 34 32 32 31 31 31 31 30 30 30 31 31
29 29 29 30 30 30 32 32 34 35 37 38 39 40 41 42 44 45 46 48 48 48 49 48 47 45 43 40 37 36 35 34 33 32 32 31 31 30 29 29 29 30 30
30 31 32 32 32 33 34 35 37 39 40 41 43 43 44 45 47 48 49 49 49 50 51 50 49 46 43 40 37 36 34 34 33 32 32 31 30 30 29 29 29 29 29
33 34 35 35 36 36 37 39 40 41 42 44 46 47 48 49 49 49 50 50 51 52 53 52 49 46 43 40 38 36 35 34 33 32 31 31 31 30 29 28 28 27 27
35 36 37 38 39 40 40 41 43 44 45 48 49 49 50 50 50 50 51 52 52 52 52 50 48 45 42 40 37 36 35 34 33 32 31 31 30 29 28 27 26 26 25
37 38 39 40 42 43 44 45 46 47 48 49 51 51 51 52 52 52 53 52 52 51 50 49 46 42 40 39 37 35 34 34 33 32 31 30 29 28 26 25 25 25 24